C/2024 J3 ( ATLAS )

Japanese version
Home page
Updated on September 4, 2024

---------------------------------------------------------------------

* Profile

Discovery Date May 6, 2024
Magnitude 17.6 mag
Discoverer Asteroid Terrestrial-Impact Last Alert System (ATLAS) search program

* Pictures

* Orbital Elements

Epoch 2024 Oct. 17.0 TT = JDT 2460600.5
T 2026 Nov. 25.27817 TT                                 Rudenko
q   3.8645964            (2000.0)            P               Q
z  -0.0002299      Peri.   74.09404     +0.30486348     -0.19909706
 +/-0.0000645      Node   285.96350     -0.55209519     +0.75988852
e   1.0008885      Incl.   75.62910     +0.77604714     +0.61881321
>From 163 observations 2024 May 6-Sept. 1, mean residual 0".5.

* Finding Charts

* Magnitudes Graph

        m1 = 4.5 + 5 log d + 10.0 log r

---------------------------------------------------------------------

The orbital elements are published on M.P.E.C. 2024-R10.
The charts are made with StellaNavigator Ver.11 (AstroArts).
The magnitudes graphs are made with Comet for Windows.

---------------------------------------------------------------------

Copyright(C) Seiichi Yoshida (comet@aerith.net). All rights reserved.